QPF
0.00 0.00 0.00 0.00 0.00 0.00 0.00 0.00 0.00 0.00 0.00 0.00 0.00 0.00 0.00 0.00 0.00 0.00 0.00 0.00 0.00 0.00 0.00 0.00 0.00 0.00 0.00 0.00 0.00 0.00 0.00 0.00 0.00 0.00 0.00 0.00 0.00 0.00 0.00 0.00 0.00 0.00 0.00
0.00 0.00 0.00 0.00 0.00 0.00 0.00 0.00 0.00 0.00 0.00 0.00 0.00 0.00 0.00 0.00 0.00 0.00 0.00 0.00 0.00 0.00 0.00 0.00 0.00 0.00 0.00 0.00 0.00 0.00 0.00 0.00 0.00 0.00 0.00 0.00 0.00 0.00 0.00 0.00 0.00 0.00 0.00
0.00 0.00 0.00 0.00 0.00 0.00 0.00 0.00 0.00 0.00 0.00 0.00 0.00 0.00 0.00 0.00 0.00 0.00 0.00 0.00 0.00 0.00 0.00 0.00 0.00 0.00 0.00 0.00 0.00 0.00 0.00 0.00 0.00 0.00 0.00 0.00 0.00 0.00 0.00 0.00 0.00 0.01 0.03
0.00 0.00 0.00 0.00 0.00 0.00 0.00 0.00 0.00 0.00 0.00 0.00 0.00 0.00 0.00 0.00 0.00 0.00 0.00 0.00 0.00 0.00 0.00 0.00 0.00 0.00 0.00 0.00 0.00 0.00 0.00 0.00 0.00 0.00 0.00 0.00 0.00 0.00 0.00 0.00 0.01 0.02 0.03
0.00 0.00 0.00 0.00 0.00 0.00 0.00 0.00 0.00 0.00 0.00 0.00 0.00 0.00 0.00 0.00 0.00 0.00 0.00 0.00 0.00 0.00 0.00 0.00 0.00 0.00 0.00 0.00 0.00 0.00 0.00 0.00 0.00 0.00 0.00 0.00 0.00 0.00 0.00 0.00 0.01 0.02 0.02
0.00 0.00 0.00 0.00 0.00 0.00 0.01 0.00 0.00 0.00 0.00 0.00 0.01 0.01 0.00 0.00 0.00 0.00 0.00 0.00 0.00 0.00 0.00 0.00 0.00 0.00 0.00 0.00 0.00 0.00 0.00 0.00 0.00 0.00 0.00 0.00 0.00 0.02 0.00 0.00 0.01 0.00 0.02
0.00 0.00 0.00 0.01 0.01 0.02 0.01 0.01 0.01 0.00 0.00 0.00 0.02 0.05 0.03 0.01 0.01 0.00 0.00 0.00 0.00 0.00 0.00 0.00 0.00 0.00 0.00 0.00 0.00 0.00 0.00 0.00 0.00 0.00 0.00 0.00 0.01 0.02 0.01 0.00 0.00 0.01 0.01
0.00 0.00 0.00 0.00 0.00 0.00 0.01 0.01 0.00 0.00 0.00 0.00 0.00 0.05 0.06 0.05 0.02 0.01 0.00 0.00 0.00 0.00 0.00 0.00 0.00 0.00 0.00 0.00 0.00 0.00 0.00 0.00 0.00 0.00 0.00 0.00 0.01 0.02 0.00 0.00 0.00 0.01 0.01
0.00 0.00 0.00 0.00 0.00 0.00 0.01 0.01 0.01 0.00 0.00 0.01 0.02 0.02 0.04 0.05 0.06 0.02 0.00 0.00 0.00 0.00 0.00 0.00 0.00 0.00 0.00 0.00 0.00 0.00 0.00 0.00 0.00 0.00 0.00 0.00 0.00 0.02 0.00 0.00 0.00 0.01 0.01
0.00 0.00 0.00 0.00 0.00 0.00 0.00 0.02 0.02 0.00 0.02 0.01 0.03 0.02 0.02 0.04 0.06 0.04 0.02 0.00 0.00 0.00 0.00 0.00 0.00 0.00 0.00 0.00 0.00 0.00 0.00 0.00 0.00 0.00 0.00 0.00 0.00 0.00 0.00 0.01 0.00 0.00 0.01
0.00 0.00 0.00 0.00 0.00 0.00 0.00 0.00 0.00 0.00 0.02 0.01 0.00 0.01 0.01 0.03 0.08 0.12 0.08 0.04 0.04 0.04 0.01 0.00 0.00 0.00 0.00 0.00 0.00 0.00 0.00 0.00 0.00 0.00 0.00 0.00 0.00 0.00 0.00 0.03 0.01 0.01 0.02
0.00 0.00 0.00 0.00 0.00 0.00 0.00 0.00 0.00 0.00 0.00 0.00 0.00 0.00 0.00 0.02 0.04 0.07 0.06 0.06 0.08 0.05 0.01 0.00 0.00 0.00 0.00 0.00 0.00 0.00 0.00 0.00 0.00 0.00 0.00 0.00 0.00 0.00 0.00 0.05 0.00 0.00 0.01
0.00 0.00 0.00 0.00 0.00 0.00 0.00 0.00 0.00 0.00 0.00 0.00 0.00 0.00 0.00 0.01 0.05 0.06 0.07 0.07 0.08 0.11 0.05 0.02 0.01 0.00 0.00 0.00 0.00 0.00 0.00 0.00 0.00 0.00 0.00 0.00 0.00 0.00 0.02 0.02 0.00 0.00 0.02
0.00 0.00 0.00 0.00 0.00 0.00 0.00 0.00 0.00 0.00 0.00 0.00 0.00 0.00 0.00 0.00 0.01 0.02 0.05 0.07 0.09 0.12 0.10 0.10 0.08 0.04 0.00 0.00 0.00 0.00 0.00 0.00 0.00 0.00 0.00 0.00 0.00 0.00 0.02 0.03 0.01 0.00 0.02
0.00 0.00 0.00 0.00 0.00 0.00 0.00 0.00 0.00 0.00 0.00 0.00 0.00 0.00 0.00 0.00 0.00 0.00 0.00 0.02 0.05 0.09 0.16 0.12 0.05 0.03 0.01 0.00 0.00 0.00 0.00 0.00 0.00 0.00 0.00 0.00 0.00 0.00 0.03 0.04 0.02 0.00 0.01
0.00 0.00 0.00 0.00 0.00 0.00 0.00 0.00 0.00 0.00 0.00 0.00 0.00 0.00 0.00 0.00 0.00 0.00 0.00 0.00 0.00 0.02 0.09 0.16 0.12 0.04 0.04 0.05 0.01 0.00 0.00 0.00 0.00 0.00 0.00 0.00 0.00 0.00 0.00 0.02 0.06 0.03 0.01
0.00 0.00 0.00 0.00 0.00 0.00 0.00 0.00 0.00 0.00 0.00 0.00 0.00 0.00 0.00 0.00 0.00 0.00 0.00 0.00 0.00 0.00 0.02 0.07 0.13 0.13 0.07 0.06 0.04 0.01 0.00 0.00 0.00 0.00 0.00 0.00 0.00 0.00 0.00 0.00 0.03 0.07 0.04
0.00 0.00 0.00 0.00 0.00 0.00 0.00 0.00 0.00 0.00 0.00 0.00 0.00 0.00 0.00 0.00 0.00 0.00 0.00 0.00 0.00 0.00 0.00 0.02 0.07 0.13 0.07 0.05 0.08 0.04 0.00 0.00 0.00 0.00 0.00 0.00 0.00 0.00 0.00 0.00 0.00 0.01 0.03
0.00 0.00 0.00 0.00 0.00 0.00 0.00 0.00 0.00 0.00 0.00 0.00 0.00 0.00 0.00 0.00 0.00 0.00 0.00 0.00 0.00 0.00 0.00 0.00 0.02 0.03 0.02 0.02 0.02 0.01 0.00 0.00 0.00 0.00 0.00 0.00 0.00 0.00 0.00 0.00 0.00 0.00 0.02
0.00 0.00 0.00 0.00 0.00 0.00 0.00 0.00 0.00 0.00 0.00 0.00 0.00 0.00 0.00 0.00 0.00 0.00 0.00 0.00 0.00 0.00 0.00 0.00 0.01 0.02 0.02 0.03 0.03 0.01 0.00 0.00 0.00 0.00 0.00 0.00 0.00 0.00 0.00 0.00 0.00 0.00 0.00
0.00 0.00 0.00 0.00 0.00 0.00 0.00 0.00 0.00 0.00 0.00 0.00 0.00 0.00 0.00 0.00 0.00 0.00 0.00 0.00 0.00 0.00 0.00 0.00 0.00 0.01 0.03 0.03 0.05 0.04 0.01 0.01 0.01 0.01 0.00 0.00 0.00 0.00 0.00 0.00 0.00 0.00 0.00
0.00 0.00 0.00 0.00 0.00 0.00 0.00 0.00 0.00 0.00 0.00 0.00 0.00 0.00 0.00 0.00 0.00 0.00 0.00 0.00 0.00 0.00 0.00 0.00 0.00 0.01 0.02 0.03 0.06 0.05 0.05 0.04 0.03 0.01 0.00 0.00 0.00 0.00 0.00 0.00 0.00 0.00 0.00
0.00 0.00 0.00 0.00 0.00 0.00 0.00 0.00 0.00 0.00 0.00 0.00 0.00 0.00 0.00 0.00 0.00 0.00 0.00 0.00 0.00 0.00 0.00 0.00 0.00 0.01 0.02 0.02 0.05 0.08 0.08 0.06 0.04 0.01 0.00 0.00 0.00 0.00 0.00 0.00 0.00 0.00 0.00
0.00 0.00 0.00 0.00 0.00 0.00 0.00 0.00 0.00 0.00 0.00 0.00 0.00 0.00 0.00 0.00 0.00 0.00 0.00 0.00 0.00 0.00 0.00 0.00 0.00 0.01 0.02 0.02 0.05 0.06 0.04 0.07 0.07 0.05 0.02 0.00 0.00 0.00 0.01 0.00 0.00 0.00 0.00
0.00 0.00 0.00 0.00 0.00 0.00 0.00 0.00 0.00 0.00 0.00 0.00 0.00 0.00 0.00 0.00 0.00 0.00 0.00 0.00 0.00 0.00 0.00 0.00 0.00 0.00 0.00 0.01 0.03 0.07 0.08 0.07 0.08 0.08 0.07 0.03 0.01 0.01 0.00 0.00 0.00 0.00 0.00
0.00 0.00 0.00 0.00 0.00 0.00 0.00 0.00 0.00 0.00 0.00 0.00 0.00 0.00 0.00 0.00 0.00 0.00 0.00 0.00 0.00 0.00 0.00 0.00 0.00 0.00 0.00 0.00 0.01 0.03 0.07 0.08 0.08 0.07 0.05 0.04 0.05 0.04 0.03 0.01 0.00 0.01 0.00
MSLP
1013.04 1014.33 1015.05 1015.05 1015.04 1014.95 1014.88 1014.94 1015.07 1015.04 1014.84 1014.78 1014.75 1014.77 1014.85 1015.04 1015.14 1015.12 1015.18 1015.22 1015.36 1015.46 1015.55 1015.41 1015.33 1015.28 1015.28 1015.24 1015.30 1015.29 1015.32 1015.30 1015.39 1015.46 1015.57 1015.55 1015.57 1015.58 1015.54 1015.53 1015.36 1015.01 1015.76
1014.33 1014.80 1015.65 1015.31 1015.20 1015.12 1015.07 1015.09 1015.12 1015.27 1015.21 1015.10 1015.04 1014.96 1014.95 1015.05 1015.28 1015.32 1015.37 1015.33 1015.38 1015.59 1015.66 1015.64 1015.53 1015.44 1015.41 1015.45 1015.45 1015.53 1015.52 1015.55 1015.62 1015.61 1015.74 1015.75 1015.77 1015.79 1015.84 1015.72 1015.52 1015.65 1016.06
1015.18 1014.83 1015.50 1015.97 1015.73 1015.60 1015.33 1015.26 1015.41 1015.43 1015.43 1015.42 1015.29 1015.26 1015.27 1015.27 1015.38 1015.53 1015.50 1015.49 1015.48 1015.61 1015.74 1015.81 1015.67 1015.60 1015.61 1015.61 1015.59 1015.63 1015.73 1015.77 1015.80 1015.78 1015.55 1014.55 1014.99 1015.98 1016.08 1016.07 1016.05 1016.27 1016.41
1016.82 1016.72 1016.90 1016.49 1016.28 1015.98 1015.92 1015.74 1015.78 1015.76 1015.66 1015.71 1015.76 1015.70 1015.57 1015.55 1015.62 1015.71 1015.72 1015.61 1015.65 1015.68 1015.61 1015.79 1015.79 1015.79 1015.76 1015.77 1015.81 1015.77 1015.82 1015.87 1015.97 1015.82 1014.76 1014.38 1014.76 1016.12 1016.18 1016.26 1016.40 1016.51 1016.65
1018.01 1017.80 1017.76 1017.18 1016.88 1016.33 1016.17 1016.07 1016.02 1015.99 1015.97 1016.03 1016.08 1016.06 1015.98 1015.93 1015.88 1015.90 1015.94 1015.83 1015.78 1015.85 1015.77 1015.71 1015.83 1015.96 1015.90 1015.94 1015.97 1015.94 1015.93 1015.95 1015.96 1015.65 1014.71 1014.76 1014.65 1015.87 1016.24 1016.41 1016.62 1016.77 1016.75
1018.78 1018.40 1018.26 1017.94 1017.50 1017.19 1016.65 1016.35 1016.18 1015.99 1015.95 1016.20 1016.26 1016.29 1016.19 1016.17 1016.03 1016.04 1016.06 1015.97 1015.85 1015.89 1015.88 1015.79 1015.91 1016.03 1016.01 1016.05 1016.12 1016.11 1016.06 1016.04 1015.99 1014.60 1015.02 1015.18 1014.83 1015.96 1016.28 1016.51 1016.41 1016.67 1016.86
1019.25 1018.89 1018.29 1018.40 1018.25 1017.97 1017.70 1017.24 1016.72 1016.36 1016.17 1016.15 1016.21 1016.30 1016.15 1016.17 1016.15 1016.13 1016.13 1016.11 1015.93 1015.89 1015.91 1015.93 1016.04 1016.17 1016.18 1016.12 1016.13 1016.17 1016.16 1016.18 1015.48 1014.78 1015.00 1014.79 1015.07 1016.11 1016.35 1016.58 1016.74 1016.85 1017.01
1019.43 1019.38 1019.12 1018.77 1018.63 1018.41 1018.32 1018.02 1017.55 1017.04 1016.51 1016.26 1016.17 1016.23 1016.17 1016.09 1016.05 1016.02 1016.09 1016.06 1016.02 1015.86 1015.80 1015.85 1016.04 1016.19 1016.29 1016.23 1016.23 1016.25 1016.20 1016.21 1015.65 1014.76 1014.92 1014.77 1015.54 1016.16 1016.37 1016.61 1016.82 1016.99 1017.18
1019.84 1019.73 1019.62 1019.24 1018.96 1018.48 1018.41 1018.60 1018.29 1017.67 1017.23 1016.72 1016.23 1016.18 1016.09 1016.01 1015.97 1015.87 1015.87 1015.85 1015.75 1015.65 1015.70 1015.82 1015.95 1016.01 1016.16 1016.27 1016.30 1016.32 1016.31 1016.30 1015.64 1014.70 1014.96 1014.52 1015.49 1016.07 1016.27 1016.56 1016.77 1016.96 1017.21
1020.05 1020.01 1020.03 1019.60 1019.49 1019.21 1018.56 1018.62 1018.63 1018.18 1017.64 1017.09 1016.73 1016.54 1016.23 1015.90 1015.59 1015.61 1015.66 1015.67 1015.53 1015.41 1015.39 1015.64 1015.87 1016.00 1015.99 1016.09 1016.18 1016.30 1016.35 1016.23 1015.54 1014.61 1014.71 1014.41 1015.54 1015.96 1016.10 1016.39 1016.64 1016.92 1017.16
1020.43 1020.52 1020.58 1020.20 1020.02 1019.77 1018.95 1018.81 1018.51 1018.17 1017.80 1017.40 1017.03 1016.79 1016.33 1015.36 1014.79 1014.95 1015.03 1015.05 1015.27 1015.35 1015.32 1015.31 1015.41 1015.71 1015.87 1016.05 1016.03 1016.08 1016.24 1015.32 1014.56 1014.23 1014.10 1014.84 1015.64 1015.94 1016.01 1016.16 1016.39 1016.65 1017.02
1020.78 1020.87 1021.04 1021.03 1020.76 1020.31 1019.56 1019.18 1018.72 1018.33 1018.15 1017.84 1017.61 1017.31 1016.61 1016.22 1016.01 1015.19 1014.94 1015.00 1015.00 1014.94 1014.97 1015.01 1015.16 1015.58 1015.67 1014.85 1014.67 1015.64 1015.31 1014.57 1014.19 1014.03 1013.82 1014.60 1015.42 1015.81 1015.83 1016.05 1016.25 1016.45 1016.69
1021.53 1021.68 1021.63 1021.71 1021.56 1021.09 1020.37 1019.88 1019.21 1018.78 1018.60 1018.17 1018.03 1017.94 1017.29 1016.68 1016.26 1016.10 1015.46 1014.54 1014.28 1014.24 1014.25 1014.13 1014.26 1014.43 1014.25 1014.13 1013.62 1013.49 1013.70 1013.81 1013.63 1013.46 1013.55 1014.55 1015.11 1015.44 1015.56 1015.81 1016.00 1016.26 1016.49
1021.93 1022.26 1022.40 1022.12 1022.04 1021.76 1021.09 1020.53 1020.07 1019.49 1019.23 1018.77 1018.51 1018.38 1017.95 1017.12 1016.60 1016.20 1015.87 1015.95 1015.10 1014.05 1013.72 1013.55 1013.49 1013.22 1012.98 1013.24 1013.26 1013.20 1013.30 1013.16 1012.96 1013.03 1012.88 1013.99 1014.85 1014.99 1015.19 1015.49 1015.75 1015.93 1016.19
1022.48 1022.85 1022.98 1022.62 1022.49 1022.13 1021.54 1021.25 1020.77 1020.36 1019.86 1019.55 1018.89 1018.73 1018.55 1017.92 1017.29 1016.77 1016.11 1015.58 1015.46 1015.26 1014.17 1013.56 1013.34 1012.74 1012.39 1012.34 1012.49 1012.79 1012.72 1012.77 1012.84 1012.70 1012.66 1013.39 1014.14 1014.62 1014.66 1015.04 1015.38 1015.57 1015.85
1023.37 1023.42 1023.52 1023.13 1022.92 1022.62 1022.16 1021.79 1021.10 1020.76 1020.42 1019.87 1019.46 1019.30 1018.98 1018.61 1017.98 1017.23 1016.50 1015.72 1015.14 1014.66 1015.02 1014.75 1013.44 1012.81 1011.98 1011.76 1011.59 1011.78 1012.10 1011.97 1011.97 1012.32 1012.23 1012.32 1013.40 1013.99 1014.27 1014.32 1014.82 1015.13 1015.43
1023.73 1023.89 1023.76 1023.55 1023.32 1022.85 1022.45 1021.94 1021.34 1020.97 1020.56 1020.07 1019.73 1019.50 1019.26 1019.02 1018.50 1017.88 1016.76 1015.99 1015.46 1014.95 1014.75 1014.05 1013.57 1012.42 1012.08 1011.56 1011.16 1010.97 1011.47 1011.73 1011.36 1011.38 1011.72 1011.61 1011.95 1013.21 1013.70 1013.79 1014.17 1014.58 1014.90
1024.17 1024.16 1024.00 1023.89 1023.47 1023.14 1022.85 1022.41 1021.78 1021.41 1020.91 1020.41 1019.97 1019.62 1019.75 1019.45 1018.88 1018.21 1017.14 1016.36 1015.82 1015.54 1014.73 1014.06 1013.36 1012.63 1011.66 1011.35 1011.08 1010.61 1010.12 1010.41 1010.70 1010.74 1010.90 1011.00 1010.88 1010.83 1012.63 1013.32 1013.46 1013.78 1014.21
1024.52 1024.53 1024.16 1023.98 1023.69 1023.23 1022.97 1022.42 1022.01 1021.83 1021.19 1020.82 1020.37 1020.08 1019.98 1019.53 1019.34 1018.70 1017.72 1016.92 1016.93 1016.19 1015.11 1014.05 1013.15 1012.49 1011.58 1010.75 1010.42 1010.39 1010.09 1009.67 1009.98 1009.41 1010.14 1010.25 1010.28 1010.23 1010.05 1011.60 1012.73 1013.07 1013.36
1024.65 1024.70 1024.46 1024.15 1023.96 1023.39 1022.75 1022.36 1021.89 1021.49 1021.06 1020.78 1020.39 1020.35 1020.19 1019.74 1019.68 1019.36 1018.54 1017.94 1017.44 1016.79 1016.00 1015.12 1014.15 1012.82 1012.33 1010.93 1010.07 1009.63 1009.61 1009.66 1009.40 1008.51 1008.61 1009.31 1009.36 1009.68 1009.76 1009.84 1011.23 1012.17 1012.61
1024.76 1024.70 1024.59 1024.29 1024.03 1023.56 1022.93 1022.51 1022.07 1021.71 1021.27 1020.71 1020.52 1020.54 1020.22 1019.99 1019.72 1019.58 1018.92 1018.15 1017.55 1017.04 1016.22 1015.45 1014.71 1013.46 1011.82 1011.16 1009.99 1009.05 1008.72 1008.21 1008.09 1008.26 1008.03 1008.23 1008.48 1008.82 1009.01 1009.14 1009.61 1010.33 1011.36
1024.73 1024.90 1024.67 1024.53 1024.43 1024.17 1023.72 1023.19 1022.82 1022.27 1021.68 1021.24 1020.73 1020.52 1020.37 1020.13 1019.77 1019.45 1019.12 1018.46 1017.77 1017.22 1016.39 1015.56 1014.74 1013.51 1012.19 1010.78 1009.63 1008.71 1007.83 1007.60 1007.58 1007.43 1007.73 1007.35 1007.44 1007.81 1008.20 1008.18 1008.63 1009.24 1009.31
1024.72 1024.80 1024.69 1024.87 1024.90 1024.78 1024.55 1023.41 1023.01 1022.36 1021.56 1021.10 1020.89 1020.52 1020.50 1020.31 1020.00 1019.67 1019.35 1018.87 1018.19 1017.43 1016.41 1015.56 1014.78 1013.96 1012.42 1010.79 1009.11 1008.30 1007.28 1005.91 1006.34 1006.61 1006.75 1006.55 1006.33 1006.64 1006.95 1007.39 1007.42 1008.35 1008.68
1024.99 1025.10 1024.95 1025.04 1024.99 1024.96 1024.79 1024.21 1023.71 1022.98 1022.40 1022.25 1022.03 1021.47 1020.71 1020.32 1020.04 1019.76 1019.44 1018.85 1018.11 1017.57 1016.88 1015.72 1014.84 1014.07 1012.94 1011.42 1009.86 1007.87 1006.92 1005.84 1005.42 1005.31 1005.46 1005.65 1005.84 1005.72 1005.94 1006.42 1006.45 1007.13 1007.72
1025.16 1025.16 1025.18 1025.18 1025.19 1025.18 1024.96 1024.76 1024.21 1023.74 1023.44 1022.87 1022.41 1021.97 1021.23 1020.44 1019.99 1019.75 1019.61 1018.92 1018.19 1017.43 1016.78 1015.89 1014.99 1014.15 1013.31 1012.26 1010.81 1009.23 1007.11 1006.00 1005.80 1005.56 1004.71 1004.65 1004.88 1004.58 1004.99 1005.65 1005.44 1006.07 1006.56
1025.46 1025.45 1025.40 1025.29 1025.23 1025.44 1025.35 1025.03 1024.76 1024.25 1023.86 1023.31 1022.93 1022.36 1021.65 1020.66 1019.72 1019.47 1019.37 1018.85 1018.10 1017.65 1016.84 1016.03 1014.96 1014.01 1012.93 1011.83 1010.66 1009.24 1008.07 1006.17 1004.68 1004.86 1004.58 1003.88 1004.56 1003.64 1004.31 1004.88 1004.64 1005.19 1005.54
Thickness
5759 5749 5743 5742 5741 5741 5741 5739 5737 5736 5738 5737 5737 5735 5733 5729 5727 5727 5725 5723 5721 5719 5717 5719 5719 5718 5717 5717 5715 5714 5713 5713 5710 5707 5703 5701 5699 5698 5697 5696 5694 5693 5687
5746 5742 5735 5738 5738 5738 5737 5736 5734 5731 5732 5732 5732 5733 5732 5729 5725 5723 5721 5721 5719 5716 5714 5714 5715 5715 5715 5714 5714 5712 5711 5710 5708 5706 5702 5699 5697 5695 5693 5693 5692 5688 5683
5737 5737 5730 5727 5729 5729 5731 5731 5728 5728 5727 5727 5728 5728 5727 5725 5723 5720 5719 5718 5716 5714 5712 5711 5712 5712 5712 5711 5711 5711 5709 5707 5706 5705 5704 5708 5702 5693 5690 5688 5686 5682 5679
5721 5721 5718 5720 5720 5722 5722 5723 5722 5722 5723 5722 5721 5721 5721 5720 5718 5717 5715 5715 5713 5712 5712 5709 5708 5709 5709 5709 5708 5708 5707 5706 5704 5703 5709 5709 5704 5692 5689 5686 5683 5679 5677
5708 5708 5708 5712 5713 5716 5716 5717 5716 5717 5717 5716 5716 5715 5715 5714 5714 5713 5711 5712 5711 5709 5709 5708 5706 5704 5705 5704 5704 5704 5704 5703 5702 5703 5707 5705 5704 5693 5688 5684 5681 5678 5676
5699 5700 5700 5703 5705 5706 5709 5711 5712 5713 5713 5710 5709 5709 5710 5710 5711 5710 5709 5709 5708 5707 5705 5706 5703 5701 5700 5700 5700 5700 5700 5700 5699 5706 5702 5700 5701 5692 5687 5683 5682 5679 5674
5692 5693 5695 5694 5695 5696 5697 5700 5704 5706 5707 5707 5705 5704 5706 5706 5706 5706 5705 5705 5706 5705 5704 5703 5700 5697 5696 5696 5695 5696 5696 5695 5698 5701 5699 5700 5697 5689 5685 5681 5679 5676 5672
5687 5685 5685 5686 5686 5687 5687 5690 5694 5697 5700 5702 5702 5700 5700 5702 5702 5702 5702 5702 5702 5703 5703 5701 5698 5695 5692 5692 5691 5690 5691 5691 5693 5698 5696 5697 5692 5686 5683 5680 5677 5673 5669
5678 5678 5677 5679 5680 5682 5681 5680 5683 5688 5691 5694 5697 5697 5698 5698 5699 5699 5698 5699 5699 5701 5700 5698 5695 5693 5690 5688 5687 5686 5686 5685 5688 5694 5692 5695 5689 5684 5681 5678 5675 5672 5667
5672 5671 5669 5671 5670 5672 5676 5675 5674 5679 5683 5687 5690 5692 5693 5696 5698 5697 5696 5695 5696 5697 5698 5695 5692 5690 5688 5686 5685 5683 5681 5682 5685 5692 5690 5692 5685 5681 5679 5677 5674 5670 5666
5664 5661 5659 5661 5662 5662 5667 5667 5669 5672 5675 5679 5683 5685 5688 5694 5697 5695 5695 5696 5694 5692 5693 5693 5691 5688 5685 5682 5681 5680 5677 5682 5687 5689 5691 5687 5680 5676 5676 5675 5673 5670 5665
5653 5653 5649 5650 5651 5653 5657 5659 5661 5665 5666 5668 5671 5673 5678 5682 5684 5688 5690 5690 5690 5690 5690 5689 5687 5682 5681 5684 5685 5678 5677 5682 5685 5685 5687 5684 5677 5673 5673 5672 5670 5668 5666
5642 5640 5639 5638 5639 5641 5646 5648 5652 5654 5656 5660 5660 5660 5665 5670 5674 5675 5679 5685 5686 5688 5687 5688 5686 5683 5684 5683 5687 5690 5688 5685 5686 5687 5684 5678 5675 5671 5670 5669 5668 5665 5663
5632 5629 5627 5629 5629 5630 5633 5637 5639 5643 5644 5647 5649 5650 5653 5658 5662 5664 5668 5668 5673 5680 5683 5683 5683 5684 5686 5685 5685 5686 5686 5686 5687 5686 5687 5679 5671 5670 5667 5665 5665 5663 5662
5621 5618 5616 5619 5619 5621 5624 5625 5628 5630 5633 5634 5638 5639 5640 5644 5649 5653 5658 5661 5663 5665 5671 5674 5676 5680 5684 5684 5684 5683 5684 5683 5681 5682 5683 5679 5673 5667 5667 5663 5661 5661 5659
5608 5607 5605 5608 5609 5610 5613 5614 5617 5619 5621 5624 5626 5627 5629 5631 5635 5640 5645 5651 5655 5657 5656 5658 5666 5671 5679 5680 5684 5683 5681 5683 5683 5679 5680 5681 5673 5668 5664 5665 5659 5658 5657
5600 5597 5597 5598 5599 5601 5602 5605 5608 5610 5611 5613 5615 5616 5618 5619 5622 5626 5634 5639 5642 5645 5647 5651 5656 5664 5667 5675 5679 5681 5678 5675 5679 5680 5676 5677 5679 5669 5664 5664 5660 5655 5654
5588 5587 5587 5587 5590 5592 5593 5595 5598 5599 5601 5602 5603 5604 5603 5604 5608 5612 5619 5625 5628 5631 5637 5641 5647 5652 5660 5665 5668 5671 5678 5678 5675 5676 5675 5674 5677 5681 5667 5661 5661 5658 5654
5578 5577 5579 5578 5579 5582 5582 5586 5587 5588 5591 5592 5593 5593 5592 5593 5594 5597 5603 5608 5608 5613 5621 5632 5640 5641 5647 5660 5662 5664 5668 5671 5670 5675 5672 5671 5673 5676 5680 5668 5661 5658 5656
5570 5567 5568 5569 5568 5572 5574 5574 5576 5579 5581 5582 5584 5582 5581 5582 5581 5581 5586 5589 5591 5595 5601 5608 5617 5629 5630 5644 5652 5656 5658 5660 5664 5672 5673 5669 5670 5671 5674 5674 5663 5658 5657
5560 5559 5558 5559 5559 5560 5562 5563 5565 5565 5566 5568 5568 5567 5569 5570 5571 5571 5574 5578 5581 5582 5586 5591 5596 5608 5623 5630 5638 5646 5650 5660 5663 5663 5667 5667 5668 5669 5671 5673 5668 5664 5658
5551 5548 5548 5547 5546 5545 5546 5547 5548 5550 5552 5553 5554 5553 5553 5553 5555 5557 5559 5562 5565 5569 5574 5578 5581 5591 5602 5617 5625 5634 5637 5646 5649 5657 5655 5662 5666 5669 5666 5671 5669 5664 5666
5541 5538 5538 5534 5531 5529 5529 5535 5536 5538 5541 5540 5539 5538 5535 5535 5536 5538 5539 5542 5547 5550 5557 5561 5565 5570 5583 5599 5616 5622 5627 5639 5645 5646 5648 5653 5661 5663 5667 5665 5670 5662 5661
5529 5526 5526 5523 5520 5517 5515 5517 5518 5521 5523 5520 5517 5518 5521 5522 5521 5520 5520 5524 5529 5532 5536 5543 5546 5550 5560 5575 5589 5614 5625 5634 5636 5637 5646 5650 5651 5656 5661 5661 5666 5663 5659
5516 5515 5513 5510 5507 5504 5503 5501 5503 5503 5502 5503 5502 5500 5501 5504 5505 5503 5499 5502 5506 5511 5515 5522 5527 5530 5534 5546 5560 5578 5603 5615 5621 5621 5631 5641 5645 5653 5653 5651 5661 5659 5657
5503 5501 5500 5498 5495 5489 5487 5486 5485 5486 5485 5485 5484 5483 5483 5487 5490 5487 5483 5483 5485 5486 5489 5493 5500 5508 5518 5528 5540 5556 5572 5592 5612 5612 5618 5629 5631 5637 5636 5636 5651 5652 5652